EDT,Max TemperatureF,Mean TemperatureF,Min TemperatureF,Max Dew PointF,MeanDew PointF,Min DewpointF,Max Humidity, Mean Humidity, Min Humidity, Max Sea Level PressureIn, Mean Sea Level PressureIn, Min Sea Level PressureIn, Max VisibilityMiles, Mean VisibilityMiles, Min VisibilityMiles, Max Wind SpeedMPH, Mean Wind SpeedMPH, Max Gust SpeedMPH,PrecipitationIn, CloudCover, Events, WindDirDegrees
2013-10-1,69,62,55,58,52,47,90,72,47,29.95,29.91,29.87,10,10,10,9,4,,0.00,2,,302
2013-10-2,79,68,57,60,58,54,93,73,52,29.96,29.89,29.84,10,10,6,12,5,22,0.01,0,,255
2013-10-3,79,68,57,58,54,48,87,65,38,30.09,30.05,29.97,10,10,9,6,5,,0.00,0,,223
2013-10-4,75,62,52,58,54,49,94,82,53,30.09,30.06,30.04,10,9,2,6,2,,0.28,5,Rain,332
2013-10-5,66,62,57,60,58,55,93,86,75,30.13,30.09,30.06,10,10,7,7,2,,0.02,6,,70
2013-10-6,63,60,57,59,56,53,93,85,72,30.22,30.18,30.13,10,10,6,10,4,23,0.02,8,Rain,90
2013-10-7,73,67,62,65,62,57,100,89,73,30.14,30.02,29.90,10,7,3,15,9,24,0.10,7,Rain,165
2013-10-8,66,60,55,64,53,43,100,76,50,30.35,30.10,29.90,10,8,2,13,6,22,0.19,4,Rain,347
2013-10-9,62,58,55,47,44,41,74,60,52,30.43,30.39,30.35,10,10,10,17,11,25,0.00,0,,62
2013-10-10,64,59,55,56,53,48,90,82,72,30.34,30.25,30.15,10,10,10,12,9,18,0.00,2,,55
2013-10-11,64,60,57,57,56,52,94,86,70,30.14,30.11,30.09,10,10,2,15,8,23,0.00,5,,39
2013-10-12,62,58,55,55,52,47,87,79,74,30.37,30.28,30.13,10,10,7,17,10,26,0.00,4,,60
2013-10-13,60,52,43,47,44,40,89,67,53,30.43,30.39,30.34,10,10,10,15,10,21,0.00,4,,65
2013-10-14,60,49,39,48,43,38,96,80,58,30.41,30.35,30.29,10,10,10,8,1,,0.00,1,,62
2013-10-15,62,54,45,53,48,42,96,80,58,30.28,30.24,30.18,10,10,9,9,3,,0.00,0,,72
2013-10-16,61,57,54,58,55,50,100,91,82,30.17,30.04,29.92,10,6,1,12,7,,0.02,8,Rain,39
2013-10-17,68,62,55,61,58,55,100,91,73,29.91,29.86,29.78,10,6,0,10,3,21,0.00,6,Fog,230
2013-10-18,71,61,51,63,56,42,100,82,42,29.93,29.75,29.67,10,8,2,13,6,23,0.02,4,Rain,241
2013-10-19,64,52,43,52,45,40,90,71,44,30.01,29.93,29.80,10,10,9,7,2,,0.03,2,Rain,181
2013-10-20,63,54,45,56,47,32,94,71,34,30.03,29.83,29.73,10,10,9,9,5,23,0.00,3,,258
2013-10-21,66,54,42,47,41,37,85,62,40,30.14,30.09,30.04,10,10,10,10,4,18,0.00,0,,240
2013-10-22,69,62,55,56,52,41,89,76,55,30.04,29.86,29.73,10,10,10,8,4,,0.01,2,Rain,201
2013-10-23,55,50,44,44,40,34,93,72,51,29.80,29.69,29.60,10,10,7,6,3,,0.20,5,Rain,7
2013-10-24,55,48,41,40,32,26,89,62,35,29.91,29.80,29.65,10,10,10,15,4,21,0.00,0,,268
2013-10-25,52,43,35,35,30,26,82,57,43,30.17,30.03,29.92,10,10,10,8,4,,0.00,2,,285
2013-10-26,57,46,34,43,35,27,82,60,45,30.19,30.09,29.91,10,10,10,18,6,33,0.00,2,Rain,239
2013-10-27,59,52,46,42,34,29,76,52,40,30.08,29.92,29.84,10,10,10,13,6,20,0.01,3,Rain,263
2013-10-28,57,46,35,39,34,30,82,58,42,30.33,30.18,30.09,10,10,9,14,3,29,0.00,1,,247
2013-10-29,52,44,35,35,33,30,89,66,50,30.41,30.39,30.35,10,10,9,8,2,,0.00,4,,24
2013-10-30,52,44,35,46,41,32,93,83,68,30.38,30.28,30.23,10,10,6,5,0,,0.04,5,Rain,213
2013-10-31,63,52,41,57,50,39,96,84,65,30.26,30.16,29.91,10,8,5,13,4,25,0.00,6,,179